Timeline UpdatesTrip UpdatesNews PostsPvt Posts♥♥Travel TipsAdmin PostsConv PostsFollowed PostsChat RequestsBlog PostsPNR Posts

Disclaimer
Search
 
 
Sat Nov 29, 2014 12:57:49 ISTHomeTrainsΣChainsAtlasPNRForumGalleryNewsFAQTripsMembersLoginFeedback
PNR Super Search

Ticket PNR Status Inquiry - PNR: 620-xxxxxxx (E-Ticket)

OLD STATUS

Status Last Updated on: Oct 31 2011 (7:14AM) IST

Date of Journey: Mon Oct 31, 2011   Class: Sleeper - SL   (Total Seats available for this Class/Quota: Avbl >14)
Passenger 1: S4,10 (Booking Status: W/L 46,RLGN)
Chart PREPARED

East Coast Express/18645

Travel Time: 6h 55m    8 halts    Distance: 359 km    Avg Speed: 51 km/hr
Type: Mail/Express
Zone: SER/South Eastern
Departs @ 11:35 (Avg 21m late)
Platform# 1
SMTWTFS
Vijayawada Junction/BZA 
Arrives @ 18:30 (Avg 22m late)
Platform# 5
SMTWTFS
Hyderabad Deccan Nampally/HYB 

8 halts. 54 intermediate Stations between Vijayawada Junction and Hyderabad Deccan Nampally

Show ALL intermediate Stations  Show Old Time-Table

#TrkCodeStation NameX/OArrivesAvgDepartsAvgHaltPFDay#KmSpeedElevZoneAddress
1/==/HWHKolkata Howrah Junction (23)  -11:45+2221-1230.26610mERHowrah 711101, West Bengal
2/==/MCAMecheda (6)X  12:40 12:38+1312:42 12:40+192m--1-1172.03710mSERdist - purba Medinipur, West Bengal
3/==/PKUPanskura Junction (6)X  13:03 13:00+1213:04 13:02+141 2m--1-1159.6599mSERPanskura, West Bengal
4/==/KGPKharagpur Junction (10)X  13:47+913:52+115m11-1115.27342mSERDist: West Medinipur, West Bengal
5/==/BLDABelda (4)  14:22 14:21+1414:23+141 2m--1-1079.77924mSERDistrict Paschim Medinipur, West Bengal
6/==/JERJaleswar (4)  14:49 14:48+1514:50+151 2m--1-1046.66513mSERJaleswar, Odisha
7/==/BTSBasta (3)X  15:09 15:08+1515:10+171 2m--1-1027.24716mSERBasta, Odisha
8/==/ROPRupsa Junction (5)XO  15:24 15:23+1515:25+141 2m--1-1017.05313mSERRupsa, Odisha
9/==/BLSBalasore (4)  15:45+1015:50+95m--1-999.28719mSERBalasore, Odisha
10/==/SOROSoroX  16:14 16:13+1216:15+121 2m--1-965.76814mSERSoro, Odisha
11/==/MKOMarkonaX  16:29 16:28+916:30+91 2m--1-950.92018mSERMarkuna, Odisha
12/==/BHCBhadrak (4)  17:13+117:15+32m--1-936.78323mECoRBhadrak, Odisha
13/==/BTVBaitarani Road  17:36 17:38+917:37 17:39+101m--1-904.96927mECoRBaitarani, Odisha
14/==/KRIHKorai Halt  17:44 17:45+1117:45 17:46+111m--1-898.04930mECoRJajapur, Odisha
15/==/JJKRJajpur Keonjhar Road (4)  17:51 17:52+1217:52 17:54+121 2m--1-893.08836mECoRJajpur, Odisha
16/==/DNMDhanmandal (3)X  18:20 18:19+1618:21 18:20+171m--1-856.55838mECoRDhanmanda, Odisha
17%==/CTCCuttack Junction (5)X  18:55 18:57+1419:00 19:02+185m31-821.04628mECoRCuttack, Odisha
18%==/BRAGBarang  19:17 19:18+2019:18 19:19+201m--1-808.93027mECoRDist - Cuttack, Odisha
19/==/BBSBhubaneswar (4)X  19:45 19:50+1419:50 19:55+155m41-793.23840mECoRBhubaneshwar, Odisha
20/==/KURKhurda Road Junction (7)X  20:20 20:25+1420:35 20:40+1215m81-774.27625mECoRKhordha, Odisha
21/==/NKPNirakarpur  20:57 21:01+1720:58 21:03+171 2m--1-747.87821mECoRNirakarpur, Odisha
22/==/KAPGKalupara Ghat  21:12 21:16+1821:13 21:18+171 2m31-730.88310mECoRChandeswar, Odisha
23/==/BALUBalugaon (3)  21:35 21:38+1921:36 21:40+191 2m21-703.26211mECoR752030, Odisha
24/==/CLKAChilka  21:44 21:47+1921:45 21:49+181 2m--1-695.96725mECoRBarkul, Odisha
25/==/KITKhallikot (3)  21:54 21:58+1821:55 22:00+181 2m--1-685.97513mECoRKhallikot, Odisha
26/==/CAPChatrapur  22:23 22:30+2022:24 22:32+201 2m--1-648.57236mECoRChatrapur, Odisha
27/==/BAMBrahmapur (3)O  22:40 22:50+2022:50 23:00+1510m21-627.17027mECoRBerhampur, Odisha
28/==/IPMIchchapuramX  23:13 23:21+623:14 23:23+61 2m--1-602.68321mECoRIchchapuram, Andhra Pradesh
29/==/SPTSompeta (4)O  23:28 23:36+523:29 23:38+41 2m--1-584.63548mECoRKanchili, Andhra Pradesh
30/==/PSAPalasa (3)  00:18 00:33+100:20 00:35+32m--2-552.87731mECoRKasibugga, Andhra Pradesh
31/==/NWPNaupada Junction  00:43 00:55+1100:44 00:57+111 2m--2-527.08613mECoRNuapada . ph.no. 08945-249728, Andhra Pradesh
32/==/CHESrikakulam Road (4)  01:20 01:30+1201:22 01:32+122m--2-479.88334mECoRsrikakulam road ph .no. 08942-287222, Andhra Pradesh
33/==/CPPChipurupalleX  01:53 02:00+1401:54 02:02+141 2m--2-441.15699mECoRCheepurupalli, Andhra Pradesh
34/==/VZMVizianagaram Junction (5)  02:30 02:35+1502:35 02:40+165m--2-410.27563mECoRVizianagaram, Andhra Pradesh
35/==/KTVKottavalasa Junction (5)X  03:03 03:08+2103:04 03:10+211 2m--2-375.37758mECoRVizianagaram District, Andhra Pradesh
36/==/SCMSimhachalam (2)  03:21 03:24-03:22 03:26-1 2m--2-357.21727mECoRVisakhapatnam, Andhra Pradesh
37/==/VSKPVisakhapatnam Junction (8)XO03:45 03:55+1104:05 04:15+1320m32-349.13311mECoRVishakhapatnam 530001, Andhra Pradesh
38/==/DVDDuvvada (4)X  04:33 04:45+1404:35 04:47+152m12-332.84446mECoRVishakhapatnam District, Andhra Pradesh
39/==/AKPAnakapalle (3)X  04:53 05:09+1404:54 05:10+181m22-316.85930mSCRAnakapalle ph.no . 08924-221698, Andhra Pradesh
40/==/YLMElamanchili (2)X  05:14 05:34+2205:15 05:35+261m12-293.07123mSCRVisakhapatnam District, Andhra Pradesh
41/==/TUNITuni (2)X  05:43 06:09+3005:44 06:10+311m12-253.06224mSCRTuni ph.no. 08854-252172, Andhra Pradesh
42/==/ANVAnnavaram (3)XO  05:58 06:26+3105:59 06:27+331m12-236.34627mSCREast Godavari District, Andhra Pradesh
43/==/PAPPithapuram (2)O  06:19 06:59+2406:20 07:00+301m12-211.58022mSCREast Godavari District, Andhra Pradesh
44/==/SLOSamalkot Junction (3)XO  06:34 07:09+3306:35 07:10+341m32-199.56318mSCRSamalkot, Andhra Pradesh
45/==/DWPDwarapudi (3)X07:04 07:39+3407:05 07:40+361m--2-169.24020mSCREast Godavari District, Andhra Pradesh
46/==/RJYRajahmundry (3)  07:42 08:10+3007:44 08:12+322m12-149.35523mSCRRajahmundry ph.no. 0883-2420541, Andhra Pradesh
47/==/NDDNidadavolu Junction (3)XO  08:08 08:36+4308:09 08:37+441m22-127.17520mSCRNidadavolu jtn ph.no. 08813-210325, Andhra Pradesh
48/==/TDDTadepalligudem (3)  08:26 08:53+3808:27 08:54+401m32-107.19218mSCRTadepalligudem, Andhra Pradesh
49/==/EEEluru (3)  09:00 09:25+5109:01 09:26+521m32-59.43319mSCREluru Ph.no. 08812 226401., Andhra Pradesh
50/==/BZAVijayawada Junction (10)»X11:00 11:15+1611:20 11:35+2120m120.09324mSCRVijayawada 520001, Andhra Pradesh
51/==/KMTKhammam (2)X  12:30 12:40+5812:32 12:42+582m22100.466118mSCRKhammam 507001, Telangana
52/==/MABDMahbubabad (2)  13:15 13:25+1:0613:16 13:26+1:071m22147.858200mSCRWarangal Dist., Telangana
53/==/WLWarangal (3)  14:08 14:28+1:0114:10 14:30+1:032m22207.947271mSCRWarangal., Telangana
54/==/KZJKazipet Junction (3)X  14:40 14:43+1:0414:42 14:45+1:052m32218.164292mSCRWarangal Dist., Telangana
55/==/ZNJangaon (2)  15:31 15:30+1:1415:32+1:131 2m12266.039380mSCRWarangal Dist., Telangana
56/==/ALERAler (2)  15:55+1:1015:56+1:111m22281.145366mSCRNalgonda Dist., Telangana
57/==/BGBhongir (3)X  16:26+1:0116:27+1:011m12303.430455mSCRNalgonda Dist., Telangana
58/==/SCSecunderabad Junction (10)X  18:00+2818:05+285m52349.722539mSCRSecunderabad 500003, Telangana
59/==/HYBHyderabad Deccan Nampally (6)•  18:30+22-52359.0-510mSCRHyderabad, Telangana
Scroll to Top
Scroll to Bottom


Go to Mobile site